H1 CPF 2 NER 2024 10 10 9 284 01 glonass143 H2 2007501 9143 46805 2024 10 10 0 0 0 2024 10 13 23 45 0 900 1 1 0 0 0 1 H9 10 0 60593 0.00000 0 22769987.460 9076229.286 -7013993.785 10 0 60593 900.00000 0 21769459.536 8724578.985 -9998798.706 10 0 60593 1800.00000 0 20393839.825 8396670.241 -12789070.041 10 0 60593 2700.00000 0 18670569.259 8144977.863 -15330516.727 10 0 60593 3600.00000 0 16638913.934 8016441.540 -17573697.356 10 0 60593 4500.00000 0 14348493.994 8050294.786 -19474986.136 10 0 60593 5400.00000 0 11857391.403 8276232.411 -20997423.641 10 0 60593 6300.00000 0 9229915.649 8712994.629 -22111435.748 10 0 60593 7200.00000 0 6534120.772 9367428.099 -22795406.942 10 0 60593 8100.00000 0 3839177.214 10234063.876 -23036097.216 10 0 60593 9000.00000 0 1212707.863 11295230.362 -22828894.920 10 0 60593 9900.00000 0 -1281801.119 12521696.645 -22177901.122 10 0 60593 10800.00000 0 -3587407.513 13873819.359 -21095844.324 10 0 60593 11700.00000 0 -5655838.974 15303144.960 -19603827.556 10 0 60593 12600.00000 0 -7449250.236 16754400.182 -17730913.050 10 0 60593 13500.00000 0 -8941539.754 18167787.187 -15513552.778 10 0 60593 14400.00000 0 -10119172.393 19481487.050 -12994876.011 10 0 60593 15300.00000 0 -10981475.469 20634266.483 -10223847.860 10 0 60593 16200.00000 0 -11540397.574 21568078.318 -7254315.236 10 0 60593 17100.00000 0 -11819742.002 22230546.502 -4143958.868 10 0 60593 18000.00000 0 -11853908.684 22577231.173 -953171.926 10 0 60593 18900.00000 0 -11686199.047 22573578.628 2256112.787 10 0 60593 19800.00000 0 -11366756.447 22196474.266 5421624.144 10 0 60593 20700.00000 0 -10950230.032 21435333.236 8481959.001 10 0 60593 21600.00000 0 -10493261.254 20292682.976 11377770.094 10 0 60593 22500.00000 0 -10051899.512 18784213.073 14052912.583 10 0 60593 23400.00000 0 -9679056.085 16938290.125 16455527.293 10 0 60593 24300.00000 0 -9422103.682 14794957.525 18539040.104 10 0 60593 25200.00000 0 -9320722.615 12404461.344 20263058.791 10 0 60593 26100.00000 0 -9405084.091 9825363.071 21594150.565 10 0 60593 27000.00000 0 -9694446.961 7122316.839 22506486.006 10 0 60593 27900.00000 0 -10196227.015 4363602.440 22982337.571 10 0 60593 28800.00000 0 -10905578.214 1618515.449 23012423.414 10 0 60593 29700.00000 0 -11805504.045 -1045278.492 22596090.129 10 0 60593 30600.00000 0 -12867495.237 -3564316.689 21741330.738 10 0 60593 31500.00000 0 -14052668.147 -5881734.017 20464637.203 10 0 60593 32400.00000 0 -15313357.307 -7949380.747 18790689.616 10 0 60593 33300.00000 0 -16595096.546 -9729576.361 16751887.197 10 0 60593 34200.00000 0 -17838906.611 -11196426.944 14387729.164 10 0 60593 35100.00000 0 -18983794.055 -12336651.755 11744056.491 10 0 60593 36000.00000 0 -19969356.842 -13149884.764 8872168.315 10 0 60593 36900.00000 0 -20738387.092 -13648438.847 5827829.524 10 0 60593 37800.00000 0 -21239361.181 -13856542.934 2670188.413 10 0 60593 38700.00000 0 -21428711.433 -13809084.534 -539374.603 10 0 60593 39600.00000 0 -21272782.575 -13549911.138 -3738444.498 10 0 60593 40500.00000 0 -20749389.324 -13129762.948 -6864791.481 10 0 60593 41400.00000 0 -19848908.098 -12603925.032 -9857588.654 10 0 60593 42300.00000 0 -18574855.583 -12029699.153 -12658602.845 10 0 60593 43200.00000 0 -16943928.561 -11463803.176 -15213334.580 10 0 60593 44100.00000 0 -14985502.386 -10959809.019 -17472084.250 10 0 60593 45000.00000 0 -12740608.387 -10565728.424 -19390923.136 10 0 60593 45900.00000 0 -10260432.553 -10321849.312 -20932550.096 10 0 60593 46800.00000 0 -7604397.948 -10258914.669 -22067017.216 10 0 60593 47700.00000 0 -4837910.756 -10396721.206 -22772310.454 10 0 60593 48600.00000 0 -2029863.801 -10743197.058 -23034774.364 10 0 60593 49500.00000 0 749998.701 -11293997.380 -22849373.107 10 0 60593 50400.00000 0 3433745.752 -12032634.833 -22219783.129 10 0 60593 51300.00000 0 5957843.201 -12931139.238 -21158316.195 10 0 60593 52200.00000 0 8265549.648 -13951218.515 -19685674.642 10 0 60593 53100.00000 0 10309025.787 -15045871.842 -17830543.875 10 0 60593 54000.00000 0 12051070.546 -16161387.020 -15629030.244 10 0 60593 54900.00000 0 13466413.012 -17239637.880 -13123955.328 10 0 60593 55800.00000 0 14542507.688 -18220584.914 -10364020.446 10 0 60593 56700.00000 0 15279801.502 -19044873.788 -7402857.723 10 0 60593 57600.00000 0 15691463.074 -19656422.266 -4297986.255 10 0 60593 58500.00000 0 15802587.204 -20004886.494 -1109693.824 10 0 60593 59400.00000 0 15648909.594 -20047902.763 2100133.917 10 0 60593 60300.00000 0 15275087.204 -19753010.257 5269213.916 10 0 60593 61200.00000 0 14732617.769 -19099173.768 8336072.359 10 0 60593 62100.00000 0 14077486.989 -18077842.194 11241234.033 10 0 60593 63000.00000 0 13367643.054 -16693498.095 13928371.482 10 0 60593 63900.00000 0 12660405.202 -14963674.880 16345391.882 10 0 60593 64800.00000 0 12009915.438 -12918440.406 18445441.067 10 0 60593 65700.00000 0 11464740.488 -10599367.820 20187805.834 10 0 60593 66600.00000 0 11065724.560 -8058035.763 21538697.728 10 0 60593 67500.00000 0 10844182.838 -5354119.317 22471903.842 10 0 60593 68400.00000 0 10820511.336 -2553149.882 22969292.659 10 0 60593 69300.00000 0 11003271.381 275964.261 23021165.616 10 0 60593 70200.00000 0 11388787.302 3063555.141 22626447.767 10 0 60593 71100.00000 0 11961274.575 5741842.838 21792713.821 10 0 60593 72000.00000 0 12693493.739 8247505.121 20536048.624 10 0 60593 72900.00000 0 13547903.423 10524063.397 18880744.144 10 0 60593 73800.00000 0 14478265.054 12523986.781 16858837.926 10 0 60593 74700.00000 0 15431632.703 14210427.343 14509500.965 10 0 60593 75600.00000 0 16350645.192 15558514.728 11878285.844 10 0 60593 76500.00000 0 17176024.469 16556156.407 9016248.827 10 0 60593 77400.00000 0 17849175.235 17204310.290 5978962.254 10 0 60593 78300.00000 0 18314775.974 17516718.482 2825436.093 10 0 60593 79200.00000 0 18523251.447 17519113.592 -383030.528 10 0 60593 80100.00000 0 18433021.393 17247931.397 -3584045.083 10 0 60593 81000.00000 0 18012429.219 16748584.606 -6715340.926 10 0 60593 81900.00000 0 17241267.928 16073371.260 -9715995.565 10 0 60593 82800.00000 0 16111837.541 15279106.931 -12527623.304 10 0 60593 83700.00000 0 14629487.992 14424581.601 -15095518.175 10 0 60593 84600.00000 0 12812623.401 13567949.588 -17369724.159 10 0 60593 85500.00000 0 10692166.494 12764163.603 -19306011.277 10 0 60594 0.00000 0 8310505.009 12062562.033 -20866738.121 10 0 60594 900.00000 0 5719962.232 11504711.391 -22021584.745 10 0 60594 1800.00000 0 2980858.379 11122596.081 -22748139.807 10 0 60594 2700.00000 0 159239.110 10937230.533 -23032333.683 10 0 60594 3600.00000 0 -2675631.352 10957752.936 -22868707.417 10 0 60594 4500.00000 0 -5453909.705 11181037.932 -22260513.651 10 0 60594 5400.00000 0 -8107836.068 11591844.194 -21219647.912 10 0 60594 6300.00000 0 -10574309.385 12163490.101 -19766411.951 10 0 60594 7200.00000 0 -12797269.264 12859028.564 -17929114.040 10 0 60594 8100.00000 0 -14729786.103 13632871.036 -15743514.204 10 0 60594 9000.00000 0 -16335773.527 14432791.866 -13252125.243 10 0 60594 9900.00000 0 -17591252.959 15202228.188 -10503383.270 10 0 60594 10800.00000 0 -18485118.928 15882778.109 -7550703.933 10 0 60594 11700.00000 0 -19019374.585 16416791.611 -4451442.758 10 0 60594 12600.00000 0 -19208829.065 16749944.678 -1265780.003 10 0 60594 13500.00000 0 -19080270.872 16833687.944 1944448.164 10 0 60594 14400.00000 0 -18671153.357 16627466.396 5116949.279 10 0 60594 15300.00000 0 -18027848.742 16100616.425 8190181.528 10 0 60594 16200.00000 0 -17203545.088 15233860.071 11104544.574 10 0 60594 17100.00000 0 -16255875.337 14020333.311 13803531.257 10 0 60594 18000.00000 0 -15244378.585 12466104.741 16234818.063 10 0 60594 18900.00000 0 -14227900.415 10590162.306 18351273.691 10 0 60594 19800.00000 0 -13262041.402 8423867.851 20111866.758 10 0 60594 20700.00000 0 -12396760.604 6009901.304 21482455.732 10 0 60594 21600.00000 0 -11674234.166 3400737.367 22436446.511 10 0 60594 22500.00000 0 -11127058.354 656716.764 22955305.551 10 0 60594 23400.00000 0 -10776871.961 -2156209.153 23028919.084 10 0 60594 24300.00000 0 -10633455.571 -4968968.307 22655791.687 10 0 60594 25200.00000 0 -10694345.354 -7711990.409 21843080.309 10 0 60594 26100.00000 0 -10944977.794 -10317854.607 20606462.721 10 0 60594 27000.00000 0 -11359359.644 -12723853.523 18969842.284 10 0 60594 27900.00000 0 -11901235.552 -14874368.155 16964893.885 10 0 60594 28800.00000 0 -12525704.912 -16722955.510 14630458.828 10 0 60594 29700.00000 0 -13181220.488 -18234062.484 12011799.428 10 0 60594 30600.00000 0 -13811885.090 -19384294.694 9159726.815 10 0 60594 31500.00000 0 -14359949.671 -20163187.335 6129618.243 10 0 60594 32400.00000 0 -14768407.266 -20573445.783 2980342.560 10 0 60594 33300.00000 0 -14983572.773 -20630645.910 -226885.342 10 0 60594 34200.00000 0 -14957538.636 -20362406.757 -3429698.531 10 0 60594 35100.00000 0 -14650401.513 -19807070.774 -6565796.706 10 0 60594 36000.00000 0 -14032164.576 -19011947.705 -9574165.043 10 0 60594 36900.00000 0 -13084233.522 -18031196.803 -12396268.596 10 0 60594 37800.00000 0 -11800441.737 -16923437.497 -14977198.116 10 0 60594 38700.00000 0 -10187559.958 -15749190.100 -17266744.246 10 0 60594 39600.00000 0 -8265267.689 -14568255.322 -19220378.569 10 0 60594 40500.00000 0 -6065586.516 -13437143.739 -20800122.111 10 0 60594 41400.00000 0 -3631798.130 -12406663.966 -21975284.335 10 0 60594 42300.00000 0 -1016891.654 -11519771.360 -22723058.393 10 0 60594 43200.00000 0 1718395.438 -10809767.676 -23028961.397 10 0 60594 44100.00000 0 4507861.589 -10298927.103 -22887111.638 10 0 60594 45000.00000 0 7282355.842 -9997605.886 -22300337.798 10 0 60594 45900.00000 0 9972418.707 -9903872.218 -21280118.531 10 0 60594 46800.00000 0 12510939.840 -10003671.112 -19846353.949 10 0 60594 47700.00000 0 14835722.518 -10271516.422 -18026973.753 10 0 60594 48600.00000 0 16891848.889 -10671680.021 -15857389.817 10 0 60594 49500.00000 0 18633748.335 -11159827.229 -13379803.979 10 0 60594 50400.00000 0 20026883.687 -11685028.867 -10642384.600 10 0 60594 51300.00000 0 21048986.018 -12192064.483 -7698327.956 10 0 60594 52200.00000 0 21690787.648 -12623919.078 -4604822.826 10 0 60594 53100.00000 0 21956223.939 -12924367.538 -1421938.541 10 0 60594 54000.00000 0 21862096.755 -13040537.333 1788541.723 10 0 60594 54900.00000 0 21437214.949 -12925341.051 4964319.588 10 0 60594 55800.00000 0 20721049.092 -12539675.838 8043788.606 10 0 60594 56700.00000 0 19761957.931 -11854296.737 10967226.422 10 0 60594 57600.00000 0 18615061.788 -10851284.678 13677948.941 10 0 60594 58500.00000 0 17339852.689 -9525046.916 16123404.313 10 0 60594 59400.00000 0 15997641.735 -7882807.303 18256186.012 10 0 60594 60300.00000 0 14648950.719 -5944565.040 20034945.923 10 0 60594 61200.00000 0 13350956.996 -3742522.658 21425190.421 10 0 60594 62100.00000 0 12155098.178 -1320005.903 22399944.744 10 0 60594 63000.00000 0 11104936.289 1270080.844 22940273.425 10 0 60594 63900.00000 0 10234370.151 3967200.831 23035647.182 10 0 60594 64800.00000 0 9566270.258 6705453.547 22684149.412 10 0 60594 65700.00000 0 9111592.789 9416073.052 21892518.258 10 0 60594 66600.00000 0 8869009.662 12030053.703 20676023.053 10 0 60594 67500.00000 0 8825070.052 14480795.525 19058176.936 10 0 60594 68400.00000 0 8954886.776 16706660.349 17070290.297 10 0 60594 69300.00000 0 9223318.953 18653333.090 14750872.751 10 0 60594 70200.00000 0 9586601.550 20275890.245 12144894.202 10 0 60594 71100.00000 0 9994353.436 21540489.532 9302918.418 10 0 60594 72000.00000 0 10391879.398 22425610.014 6280125.240 10 0 60594 72900.00000 0 10722668.781 22922790.577 3135240.038 10 0 60594 73800.00000 0 10930984.785 23036835.684 -70608.919 10 0 60594 74700.00000 0 10964434.105 22785479.540 -3275082.646 10 0 60594 75600.00000 0 10776407.230 22198522.854 -6415849.435 10 0 60594 76500.00000 0 10328284.872 21316478.749 -9431804.250 10 0 60594 77400.00000 0 9591315.846 20188785.256 -12264264.828 10 0 60594 78300.00000 0 8548085.527 18871660.260 -14858120.367 10 0 60594 79200.00000 0 7193511.405 17425689.909 -17162909.699 10 0 60594 80100.00000 0 5535322.394 15913252.778 -19133807.311 10 0 60594 81000.00000 0 3594000.477 14395888.847 -20732497.732 10 0 60594 81900.00000 0 1402186.025 12931724.418 -21927921.171 10 0 60594 82800.00000 0 -996429.148 11573061.474 -22696876.033 10 0 60594 83700.00000 0 -3548675.471 10364232.677 -23024466.941 10 0 60594 84600.00000 0 -6193880.891 9339811.714 -22904390.009 10 0 60594 85500.00000 0 -8866165.869 8523253.451 -22339050.280 10 0 60595 0.00000 0 -11496962.672 7926020.147 -21339509.647 10 0 60595 900.00000 0 -14017655.914 7547229.010 -19925266.059 10 0 60595 1800.00000 0 -16362231.380 7373835.476 -18123869.995 10 0 60595 2700.00000 0 -18469828.028 7381342.228 -15970384.114 10 0 60595 3600.00000 0 -20287083.971 7535003.784 -13506697.928 10 0 60595 4500.00000 0 -21770180.721 7791474.473 -10780710.429 10 0 60595 5400.00000 0 -22886500.955 8100829.452 -7845396.727 10 0 60595 6300.00000 0 -23615831.473 8408872.672 -4757776.901 10 0 60595 7200.00000 0 -23951061.992 8659633.701 -1577807.275 10 0 60595 8100.00000 0 -23898351.559 8797947.426 1632784.168 10 0 60595 9000.00000 0 -23476756.689 8772007.221 4811695.473 10 0 60595 9900.00000 0 -22717337.778 8535783.427 7897258.024 10 0 60595 10800.00000 0 -21661782.175 8051204.745 10829630.032 10 0 60595 11700.00000 0 -20360602.400 7290010.209 13551953.126 10 0 60595 12600.00000 0 -18870985.522 6235193.350 16011449.805 10 0 60595 13500.00000 0 -17254384.124 4881977.258 18160440.926 10 0 60595 14400.00000 0 -15573949.639 3238278.935 19957264.094 10 0 60595 15300.00000 0 -13891915.251 1324642.508 21367075.792 10 0 60595 16200.00000 0 -12267037.237 -826356.986 22362522.470 10 0 60595 17100.00000 0 -10752200.984 -3171215.776 22924268.213 10 0 60595 18000.00000 0 -9392290.947 -5657065.034 23041369.278 10 0 60595 18900.00000 0 -8222412.694 -8223632.587 22711488.492 10 0 60595 19800.00000 0 -7266540.605 -10805522.758 21940945.351 10 0 60595 20700.00000 0 -6536647.175 -13334721.070 20744600.479 10 0 60595 21600.00000 0 -6032349.942 -15743221.097 19145576.097 10 0 60595 22500.00000 0 -5741090.575 -17965665.368 17174817.013 10 0 60595 23400.00000 0 -5638838.577 -19941891.165 14870499.702 10 0 60595 24300.00000 0 -5691290.034 -21619275.636 12277299.896 10 0 60595 25200.00000 0 -5855511.017 -22954782.507 9445531.965 10 0 60595 26100.00000 0 -6081956.347 -23916624.659 6430176.097 10 0 60595 27000.00000 0 -6316778.344 -24485472.814 3289811.770 10 0 60595 27900.00000 0 -6504327.600 -24655159.096 85478.099 10 0 60595 28800.00000 0 -6589739.243 -24432845.448 -3120516.511 10 0 60595 29700.00000 0 -6521494.378 -23838649.677 -6265811.689 10 0 60595 30600.00000 0 -6253847.059 -22904744.666 -9289214.991 10 0 60595 31500.00000 0 -5749012.771 -21673968.766 -12131899.690 10 0 60595 32400.00000 0 -4979024.393 -20198006.129 -14738556.298 10 0 60595 33300.00000 0 -3927175.747 -18535214.011 -17058474.620 10 0 60595 34200.00000 0 -2588990.410 -16748188.994 -19046534.673 10 0 60595 35100.00000 0 -972673.661 -14901174.955 -20664086.847 10 0 60595 36000.00000 0 900972.626 -13057422.112 -21879704.102 10 0 60595 36900.00000 0 2999169.559 -11276608.187 -22669791.679 10 0 60595 37800.00000 0 5278290.164 -9612429.850 -23019042.828 10 0 60595 38700.00000 0 7685451.174 -8110465.012 -22920732.126 10 0 60595 39600.00000 0 10160501.708 -6806394.900 -22376841.158 10 0 60595 40500.00000 0 12638326.375 -5724659.471 -21398014.606 10 0 60595 41400.00000 0 15051367.189 -4877601.273 -20003347.960 10 0 60595 42300.00000 0 17332259.544 -4265132.330 -18220011.291 10 0 60595 43200.00000 0 19416472.782 -3874936.545 -16082716.607 10 0 60595 44100.00000 0 21244845.687 -3683197.639 -13633039.231 10 0 60595 45000.00000 0 22765911.559 -3655820.596 -10918606.503 10 0 60595 45900.00000 0 23937916.339 -3750093.873 -7992169.668 10 0 60595 46800.00000 0 24730446.078 -3916721.138 -4910577.033 10 0 60595 47700.00000 0 25125596.328 -4102135.866 -1733668.554 10 0 60595 48600.00000 0 25118635.300 -4251000.232 1476886.537 10 0 60595 49500.00000 0 24718133.749 -4308782.153 4658786.306 10 0 60595 50400.00000 0 23945556.960 -4224301.126 7750303.493 10 0 60595 51300.00000 0 22834336.610 -3952134.958 10691480.199 10 0 60595 52200.00000 0 21428462.028 -3454785.526 13425286.788 10 0 60595 53100.00000 0 19780650.246 -2704511.860 15898722.734 10 0 60595 54000.00000 0 17950171.686 -1684753.007 18063838.485 10 0 60595 54900.00000 0 16000422.332 -391080.240 19878659.115 10 0 60595 55800.00000 0 13996343.585 1168362.077 21307992.515 10 0 60595 56700.00000 0 12001796.974 2972946.440 22324107.176 10 0 60595 57600.00000 0 10077002.509 4990180.434 22907267.109 10 0 60595 58500.00000 0 8276146.659 7176828.859 23046114.018 10 0 60595 59400.00000 0 6645258.742 9480494.525 22737889.614 10 0 60595 60300.00000 0 5220443.354 11841593.540 21988493.755 10 0 60595 61200.00000 0 4026541.777 14195644.436 20812376.949 10 0 60595 62100.00000 0 3076277.557 16475777.320 19232268.719 10 0 60595 63000.00000 0 2369921.464 18615359.829 17278746.208 10 0 60595 63900.00000 0 1895489.492 20550631.342 14989650.418 10 0 60595 64800.00000 0 1629465.362 22223236.155 12409360.394 10 0 60595 65700.00000 0 1538016.979 23582550.002 9587938.469 10 0 60595 66600.00000 0 1578655.461 24587702.459 6580162.471 10 0 60595 67500.00000 0 1702266.472 25209210.123 3444463.256 10 0 60595 68400.00000 0 1855427.663 25430151.431 241788.052 10 0 60595 69300.00000 0 1982913.571 25246833.205 -2965587.957 10 0 60595 70200.00000 0 2030281.076 24668920.144 -6115278.234 10 0 60595 71100.00000 0 1946424.865 23719021.455 -9146005.245 10 0 60595 72000.00000 0 1685993.531 22431751.821 -11998799.881 10 0 60595 72900.00000 0 1211562.622 20852306.020 -14618155.774 10 0 60595 73800.00000 0 495471.382 19034607.345 -16953115.248 10 0 60595 74700.00000 0 -478755.767 17039107.951 -18958265.135 10 0 60595 75600.00000 0 -1715464.280 14930333.842 -20594622.743 10 0 60595 76500.00000 0 -3206441.991 12774277.850 -21830394.629 10 0 60595 77400.00000 0 -4931028.086 10635750.070 -22641593.522 10 0 60595 78300.00000 0 -6856754.797 8575796.712 -23012501.732 10 0 60595 79200.00000 0 -8940495.661 6649295.072 -22935972.493 10 0 60595 80100.00000 0 -11130072.860 4902824.638 -22413563.841 10 0 60595 81000.00000 0 -13366256.926 3372902.457 -21455502.921 10 0 60595 81900.00000 0 -15585075.690 2084655.353 -20080481.802 10 0 60595 82800.00000 0 -17720336.406 1050983.172 -18315289.082 10 0 60595 83700.00000 0 -19706256.057 272246.510 -16194284.636 10 0 60595 84600.00000 0 -21480090.323 -263509.654 -13758727.848 10 0 60595 85500.00000 0 -22984651.679 -579807.446 -11055972.444 10 0 60596 0.00000 0 -24170611.587 -710495.779 -8138543.948 10 0 60596 900.00000 0 -24998491.458 -698071.916 -5063116.143 10 0 60596 1800.00000 0 -25440257.922 -591636.810 -1889410.551 10 0 60596 2700.00000 0 -25480458.181 -444571.782 1320964.728 10 0 60596 3600.00000 0 -25116846.721 -312035.267 4505710.248 10 0 60596 4500.00000 0 -24360478.313 -248386.106 7603042.632 10 0 60596 5400.00000 0 -23235263.796 -304642.685 10552890.438 10 0 60596 6300.00000 0 -21777007.611 -526085.510 13298055.334 10 0 60596 7200.00000 0 -20031967.715 -950104.698 15785316.271 10 0 60596 8100.00000 0 -18054998.174 -1604383.312 17966455.626 10 0 60596 9000.00000 0 -15907351.940 -2505493.453 19799188.046 10 0 60596 9900.00000 0 -13654235.200 -3657964.565 21247974.585 10 0 60596 10800.00000 0 -11362214.681 -5053863.833 22284707.146 10 0 60596 11700.00000 0 -9096585.164 -6672907.210 22889250.593 10 0 60596 12600.00000 0 -6918805.867 -8483097.663 23049832.552 10 0 60596 13500.00000 0 -4884111.392 -10441865.384 22763273.651 10 0 60596 14400.00000 0 -3039395.607 -12497663.962 22035053.729 10 0 60596 15300.00000 0 -1421455.646 -14591957.494 20879212.428 10 0 60596 16200.00000 0 -55668.302 -16661517.306 19318085.480 10 0 60596 17100.00000 0 1044846.651 -18640933.793 17381880.955 10 0 60596 18000.00000 0 1879541.820 -20465239.581 15108102.703 10 0 60596 18900.00000 0 2460223.439 -22072535.115 12540831.158 10 0 60596 19800.00000 0 2810308.065 -23406507.121 9729874.482 10 0 60596 20700.00000 0 2963586.234 -24418734.437 6729805.845 10 0 60596 21600.00000 0 2962545.569 -25070684.097 3598905.055 10 0 60596 22500.00000 0 2856324.497 -25335313.160 398024.984 10 0 60596 23400.00000 0 2698383.699 -25198208.121 -2810594.941 10 0 60596 24300.00000 0 2543994.613 -24658213.080 -5964544.578 10 0 60596 25200.00000 0 2447652.284 -23727519.546 -9002463.854 10 0 60596 26100.00000 0 2460523.257 -22431213.397 -11865243.822 10 0 60596 27000.00000 0 2628037.802 -20806297.672 -14497183.736 10 0 60596 27900.00000 0 2987729.632 -18900232.079 -16847080.831 10 0 60596 28800.00000 0 3567415.712 -16769050.552 -18869230.989 10 0 60596 29700.00000 0 4383794.194 -14475136.009 -20524320.413 10 0 60596 30600.00000 0 5441520.672 -12084745.757 -21780190.911 10 0 60596 31500.00000 0 6732802.549 -9665391.293 -22612463.961 10 0 60596 32400.00000 0 8237529.360 -7283182.066 -23005011.780 10 0 60596 33300.00000 0 9923934.225 -5000243.940 -22950266.675 10 0 60596 34200.00000 0 11749759.179 -2872319.688 -22449363.132 10 0 60596 35100.00000 0 13663876.008 -946650.876 -21512110.374 10 0 60596 36000.00000 0 15608295.082 739771.542 -20156796.298 10 0 60596 36900.00000 0 17520478.390 2161516.159 -18409826.918 10 0 60596 37800.00000 0 19335860.264 3305526.461 -16305208.530 10 0 60596 38700.00000 0 20990470.537 4171410.135 -13883882.757 10 0 60596 39600.00000 0 22423550.504 4771191.991 -11192927.525 10 0 60596 40500.00000 0 23580052.363 5128542.620 -8284639.557 10 0 60596 41400.00000 0 24412917.617 5277516.883 -5215516.287 10 0 60596 42300.00000 0 24885039.144 5260856.823 -2045157.170 10 0 60596 43200.00000 0 24970824.925 5127931.868 1164894.127 10 0 60596 44100.00000 0 24657298.106 4932404.281 4352343.996 10 0 60596 45000.00000 0 23944687.523 4729719.231 7455356.228 10 0 60596 45900.00000 0 22846484.191 4574526.081 10413748.954 10 0 60596 46800.00000 0 21388961.564 4518140.163 13170158.013 10 0 60596 47700.00000 0 19610179.733 4606152.379 15671144.364 10 0 60596 48600.00000 0 17558515.163 4876287.619 17868224.499 10 0 60596 49500.00000 0 15290777.096 5356602.359 19718804.420 10 0 60596 50400.00000 0 12869988.794 6064097.529 21186999.745 10 0 60596 51300.00000 0 10362925.392 7003805.354 22244326.761 10 0 60596 52200.00000 0 7837509.974 8168389.122 22870251.730 10 0 60596 53100.00000 0 5360175.190 9538273.559 23052588.289 10 0 60596 54000.00000 0 2993298.975 11082301.464 22787735.607 10 0 60596 54900.00000 0 792819.793 12758890.530 22080752.647 10 0 60596 55800.00000 0 -1193870.499 14517643.412 20945266.850 10 0 60596 56700.00000 0 -2929669.493 16301345.238 19403218.383 10 0 60596 57600.00000 0 -4389071.059 18048266.453 17484444.087 10 0 60596 58500.00000 0 -5558982.275 19694675.808 15226108.195 10 0 60596 59400.00000 0 -6439016.892 21177459.111 12671989.836 10 0 60596 60300.00000 0 -7041253.478 22436734.518 9871640.171 10 0 60596 61200.00000 0 -7389468.762 23418354.661 6879424.816 10 0 60596 62100.00000 0 -7517878.816 24076190.178 3753469.633 10 0 60596 63000.00000 0 -7469441.589 24374098.006 554530.269 10 0 60596 63900.00000 0 -7293793.024 24287490.627 -2655192.376 10 0 60596 64800.00000 0 -7044904.763 23804439.170 -5813267.186 10 0 60596 65700.00000 0 -6778563.442 22926262.924 -8858254.013 10 0 60596 66600.00000 0 -6549779.330 21667579.489 -11730906.294 10 0 60596 67500.00000 0 -6410235.129 20055812.706 -14375330.852 10 0 60596 68400.00000 0 -6405884.069 18130178.432 -16740081.501 10 0 60596 69300.00000 0 -6574800.037 15940190.490 -18779164.526 10 0 60596 70200.00000 0 -6945371.595 13543749.289 -20452936.107 10 0 60596 71100.00000 0 -7534917.054 11004893.148 -21728874.102 10 0 60596 72000.00000 0 -8348779.731 8391306.428 -22582209.272 10 0 60596 72900.00000 0 -9379942.086 5771688.503 -22996404.004 10 0 60596 73800.00000 0 -10609175.440 3213093.183 -22963469.646 10 0 60596 74700.00000 0 -12005719.330 778349.161 -22484116.787 10 0 60596 75600.00000 0 -13528462.229 -1476331.660 -21567736.029 10 0 60596 76500.00000 0 -15127574.327 -3503459.216 -20232210.036 10 0 60596 77400.00000 0 -16746524.042 -5265997.103 -18503560.818 10 0 60596 78300.00000 0 -18324393.836 -6738650.337 -16415439.338 10 0 60596 79200.00000 0 -19798398.367 -7908656.919 -14008467.435 10 0 60596 80100.00000 0 -21106499.424 -8776051.756 -11329444.999 10 0 60596 81000.00000 0 -22190008.020 -9353393.744 -8430437.836 10 0 60596 81900.00000 0 -22996064.517 -9664969.160 -5367764.032 10 0 60596 82800.00000 0 -23479892.693 -9745506.548 -2200898.692 10 0 60596 83700.00000 0 -23606733.189 -9638458.642 1008681.521 10 0 60596 84600.00000 0 -23353375.196 -9393925.027 4198691.428 10 0 60596 85500.00000 0 -22709222.145 -9066304.126 7307244.602 99